GW2423 Weather Reports


time (UTC)temp
C
wind
direction
speed
KPH
gust
KPH
rain 1hr
cm
rain 24hr
cm
rain mn
cm
humidity
%
barometer
mb
20260506124406 12 150 14.5 22.5 0.00 0.00 0.00 81 1012.1
20260506123904 12 157 11.3 14.5 0.00 0.00 0.00 82 1012.0
20260506123402 12 149 14.5 29.0 0.00 0.00 0.00 81 1011.9
20260506122859 12 162 9.7 22.5 0.00 0.00 0.00 81 1011.5
20260506122356 12 136 12.9 20.9 0.00 0.00 0.00 81 1011.8
20260506121854 12 154 19.3 27.4 0.00 0.00 0.00 81 1011.9
20260506121351 13 163 16.1 24.1 0.00 0.00 0.00 80 1011.8
20260506120848 13 165 16.1 19.3 0.00 0.00 0.00 79 1011.8
20260506120346 13 207 14.5 25.7 0.00 0.00 0.00 79 1011.5
20260506115843 13 149 6.4 19.3 0.00 0.00 0.00 79 1011.7
20260506115341 13 168 8.0 17.7 0.00 0.00 0.00 78 1011.4
20260506114839 13 154 8.0 22.5 0.00 0.00 0.00 79 1011.3
20260506114336 13 151 14.5 19.3 0.00 0.00 0.00 78 1011.1
20260506113835 13 155 3.2 25.7 0.00 0.00 0.00 78 1010.9
20260506113332 13 175 14.5 17.7 0.00 0.00 0.00 78 1010.8
20260506112828 13 150 4.8 17.7 0.00 0.00 0.00 77 1011.0
20260506112325 13 166 6.4 20.9 0.00 0.00 0.00 77 1011.1
20260506111823 13 177 8.0 17.7 0.00 0.00 0.00 77 1010.6
20260506111321 13 149 16.1 22.5 0.00 0.00 0.00 78 1010.5
20260506110818 13 172 6.4 20.9 0.00 0.00 0.00 78 1010.7
20260506110315 13 165 11.3 20.9 0.00 0.00 0.00 76 1010.4
20260506105812 14 133 6.4 14.5 0.00 0.00 0.00 76 1010.6
20260506105308 13 141 12.9 16.1 0.00 0.00 0.00 75 1010.4
20260506104806 14 246 8.0 17.7 0.00 0.00 0.00 74 1010.2
20260506104304 14 160 6.4 25.7 0.00 0.00 0.00 75 1010.0
20260506103801 14 159 14.5 20.9 0.00 0.00 0.00 75 1009.9
20260506103258 14 191 6.4 12.9 0.00 0.00 0.00 75 1009.8
20260506102756 14 145 12.9 19.3 0.00 0.00 0.00 74 1009.9
20260506102254 14 168 9.7 14.5 0.00 0.00 0.00 75 1009.7
20260506101750 14 201 8.0 22.5 0.00 0.00 0.00 74 1009.6
20260506101247 14 128 9.7 16.1 0.00 0.00 0.00 74 1009.5
20260506100745 14 166 9.7 17.7 0.00 0.00 0.00 73 1009.6
20260506100243 15 180 3.2 12.9 0.00 0.00 0.00 74 1009.8
20260506095741 15 167 12.9 24.1 0.00 0.00 0.00 74 1009.5
20260506095237 15 155 9.7 16.1 0.00 0.00 0.00 74 1009.3
20260506094734 15 145 11.3 17.7 0.00 0.00 0.00 74 1009.4
20260506094232 15 159 8.0 14.5 0.00 0.00 0.00 74 1009.4
20260506093731 15 163 6.4 11.3 0.00 0.00 0.00 75 1009.4
20260506093227 15 155 4.8 11.3 0.00 0.00 0.00 74 1009.5
20260506092725 15 243 3.2 8.0 0.00 0.00 0.00 75 1009.4
20260506092223 15 221 4.8 6.4 0.00 0.00 0.00 75 1009.3
20260506091720 15 157 4.8 16.1 0.00 0.00 0.00 75 1009.2
20260506091217 15 132 3.2 6.4 0.00 0.00 0.00 74 1009.3
20260506090715 15 224 3.2 6.4 0.00 0.00 0.00 74 1009.3
20260506090212 15 122 3.2 8.0 0.00 0.00 0.00 74 1009.1
20260506085709 15 217 9.7 9.7 0.00 0.00 0.00 74 1009.1
20260506085205 15 167 3.2 8.0 0.00 0.00 0.00 74 1009.0
20260506084702 15 152 4.8 14.5 0.00 0.00 0.00 74 1008.9
20260506084158 15 140 4.8 9.7 0.00 0.00 0.00 74 1009.1
20260506083656 15 165 3.2 6.4 0.00 0.00 0.00 73 1008.6
20260506083154 15 189 3.2 8.0 0.00 0.00 0.00 74 1008.6
20260506082651 15 134 1.6 6.4 0.00 0.00 0.00 74 1008.6
20260506082151 15 194 6.4 11.3 0.00 0.00 0.00 74 1008.5
20260506081649 15 158 4.8 19.3 0.00 0.00 0.00 74 1008.8
20260506081147 15 150 9.7 12.9 0.00 0.00 0.00 75 1008.8
20260506080644 15 223 4.8 8.0 0.00 0.00 0.00 75 1008.7
20260506080141 15 214 3.2 6.4 0.00 0.00 0.00 75 1008.6
20260506073125 15 144 6.4 14.5 0.00 0.00 0.00 75 1008.9
20260506072621 15 181 3.2 12.9 0.00 0.00 0.00 74 1009.0
20260506072119 15 181 4.8 17.7 0.00 0.00 0.00 74 1008.7
20260506071617 15 193 8.0 16.1 0.00 0.00 0.00 75 1008.9
20260506071114 15 204 4.8 12.9 0.00 0.00 0.00 75 1008.9
20260506070611 15 174 6.4 9.7 0.00 0.00 0.00 76 1008.8
20260506070108 16 160 6.4 16.1 0.00 0.00 0.00 75 1008.8
20260506062045 16 228 9.7 16.1 0.00 0.00 0.00 77 1008.9
20260506061541 16 191 9.7 11.3 0.00 0.00 0.00 77 1008.7
20260506061039 16 151 9.7 16.1 0.00 0.00 0.00 77 1008.6
20260506060537 17 160 4.8 14.5 0.00 0.00 0.00 76 1008.4
20260506051006 18 155 8.0 9.7 0.00 0.00 0.00 77 1008.5
20260506050504 18 152 3.2 14.5 0.00 0.00 0.00 77 1008.5
20260506044954 19 203 0.0 16.1 0.00 0.18 0.18 76 1008.2
20260506044452 19 201 9.7 16.1 0.00 0.18 0.18 76 1008.2
20260506043948 19 152 6.4 19.3 0.00 0.18 0.18 77 1008.1
20260506043446 20 151 9.7 14.5 0.00 0.18 0.18 76 1008.0
20260506042944 20 166 6.4 14.5 0.00 0.18 0.18 77 1008.0
20260506042443 20 155 6.4 16.1 0.00 0.18 0.18 76 1007.9
20260506041940 20 162 4.8 16.1 0.00 0.18 0.18 76 1007.7
20260506041438 20 159 4.8 17.7 0.00 0.18 0.18 75 1007.5
20260506040935 20 158 8.0 16.1 0.00 0.18 0.18 76 1007.5
20260506040433 20 194 8.0 12.9 0.00 0.18 0.18 75 1007.5
20260506035928 21 150 11.3 17.7 0.00 0.18 0.18 75 1007.8
20260506035426 21 176 4.8 17.7 0.00 0.18 0.18 76 1007.8
20260506034922 21 156 11.3 19.3 0.00 0.18 0.18 75 1007.5
20260506034420 21 173 9.7 19.3 0.00 0.18 0.18 75 1007.4
20260506033917 21 166 9.7 16.1 0.00 0.18 0.18 74 1007.3
20260506033414 21 163 9.7 14.5 0.00 0.18 0.18 74 1007.4
20260506032911 21 149 4.8 16.1 0.00 0.18 0.18 75 1007.2
20260506032408 21 144 4.8 12.9 0.00 0.18 0.18 75 1006.9
20260506031904 21 197 12.9 19.3 0.00 0.18 0.18 74 1007.3
20260506031402 21 150 14.5 17.7 0.00 0.18 0.18 75 1007.3
20260506030859 22 180 8.0 17.7 0.00 0.18 0.18 75 1007.1
20260506030358 22 148 14.5 17.7 0.00 0.18 0.18 75 1006.8
20260506025854 22 160 8.0 14.5 0.00 0.18 0.18 76 1006.6
20260506025351 22 168 6.4 16.1 0.00 0.18 0.18 75 1006.5
20260506024848 23 173 8.0 14.5 0.00 0.18 0.18 74 1006.3
20260506024344 23 154 9.7 16.1 0.00 0.18 0.18 75 1005.7
20260506023840 23 155 6.4 9.7 0.00 0.18 0.18 75 1005.7
20260506023337 23 255 1.6 9.7 0.00 0.18 0.18 74 1005.7
20260506022834 23 202 3.2 9.7 0.00 0.18 0.18 74 1005.2
20260506022332 23 136 3.2 12.9 0.00 0.18 0.18 74 1005.1
20260506021830 23 169 0.0 6.4 0.00 0.18 0.18 74 1005.2
20260506021327 23 168 3.2 9.7 0.00 0.18 0.18 74 1005.4
20260506020823 23 231 4.8 9.7 0.00 0.18 0.18 75 1005.3
20260506020321 23 156 3.2 8.0 0.00 0.18 0.18 74 1004.9
20260506015819 23 163 8.0 9.7 0.00 0.18 0.18 74 1005.3
20260506015316 23 168 3.2 8.0 0.00 0.18 0.18 75 1005.2
20260506014812 23 225 3.2 6.4 0.00 0.18 0.18 75 1005.0
20260506014309 23 162 3.2 8.0 0.00 0.18 0.18 74 1005.0
20260506013806 23 132 3.2 3.2 0.00 0.18 0.18 75 1004.7
20260506013303 23 193 6.4 9.7 0.00 0.18 0.18 74 1005.0
20260506012800 23 181 8.0 16.1 0.00 0.18 0.18 73 1005.1
20260506012257 24 148 14.5 22.5 0.00 0.18 0.18 73 1004.8
20260506011754 25 144 4.8 6.4 0.00 0.18 0.18 85 1004.4
20260506011250 25 136 3.2 9.7 0.00 0.18 0.18 82 1004.4
20260506010748 26 34 0.0 3.2 0.00 0.18 0.18 80 1004.3
20260506010245 26 354 6.4 9.7 0.00 0.18 0.18 80 1003.8
20260506005743 26 21 8.0 12.9 0.00 0.18 0.18 80 1004.3
20260506005239 25 22 8.0 11.3 0.00 0.18 0.18 81 1004.2
20260506004735 25 16 6.4 12.9 0.00 0.18 0.18 81 1004.2
20260506004233 25 2 8.0 14.5 0.00 0.18 0.18 81 1004.2
20260506003729 25 22 8.0 12.9 0.18 0.18 0.18 82 1004.1
20260506003226 25 9 9.7 11.3 0.53 0.18 0.18 81 1004.1
20260506002721 26 40 4.8 11.3 0.84 0.15 0.15 80 1004.2
20260506002218 26 19 3.2 6.4 0.48 0.08 0.08 78 1004.1
20260506001714 27 24 8.0 14.5 0.13 0.03 0.03 73 1004.1
20260506001212 27 358 9.7 16.1 0.00 0.00 0.00 70 1003.7
20260506000708 28 0 11.3 17.7 0.00 0.00 0.00 68 1003.4
20260506000206 28 7 17.7 27.4 0.00 0.00 0.00 68 1003.5
20260505235703 28 337 12.9 17.7 0.00 0.00 0.00 68 1003.1
20260505235201 28 12 22.5 27.4 0.00 0.00 0.00 68 1002.9
20260505234657 28 353 22.5 24.1 0.00 0.00 0.00 66 1003.2
20260505234154 28 358 9.7 25.7 0.00 0.00 0.00 66 1003.5
20260505233651 29 33 6.4 17.7 0.00 0.00 0.00 66 1003.3
20260505233149 29 354 3.2 19.3 0.00 0.00 0.00 65 1003.2
20260505232646 29 6 6.4 16.1 0.00 0.00 0.00 64 1003.1
20260505232144 30 346 14.5 19.3 0.00 0.00 0.00 64 1003.1
20260505231640 30 353 12.9 19.3 0.00 0.00 0.00 62 1003.1
20260505231139 30 329 8.0 14.5 0.00 0.00 0.00 62 1003.3
20260505230637 30 339 14.5 17.7 0.00 0.00 0.00 61 1003.0
20260505230133 30 7 11.3 19.3 0.00 0.00 0.00 61 1003.0
20260505225629 30 5 14.5 24.1 0.00 0.00 0.00 62 1003.0
20260505225125 30 351 14.5 22.5 0.00 0.00 0.00 61 1003.1
20260505224622 30 11 11.3 16.1 0.00 0.00 0.00 61 1003.0
20260505224120 30 2 6.4 24.1 0.00 0.00 0.00 62 1002.8
20260505223617 30 351 12.9 22.5 0.00 0.00 0.00 62 1002.9
20260505223113 30 338 20.9 22.5 0.00 0.00 0.00 62 1002.8
20260505222609 30 7 17.7 24.1 0.00 0.00 0.00 62 1002.8
20260505222106 30 14 4.8 24.1 0.00 0.00 0.00 62 1003.2
20260505221603 30 359 12.9 22.5 0.00 0.00 0.00 61 1003.0
20260505221059 30 347 14.5 17.7 0.00 0.00 0.00 61 1002.8
20260505220556 30 19 11.3 20.9 0.00 0.00 0.00 61 1002.8
20260505220054 31 347 9.7 20.9 0.00 0.00 0.00 59 1002.7
20260505215552 31 5 14.5 20.9 0.00 0.00 0.00 61 1002.8
20260505215050 31 4 8.0 20.9 0.00 0.00 0.00 60 1002.8
20260505214548 31 22 9.7 17.7 0.00 0.00 0.00 59 1002.9
20260505214044 31 25 11.3 20.9 0.00 0.00 0.00 59 1002.9
20260505213542 31 4 4.8 12.9 0.00 0.00 0.00 59 1002.9
20260505213038 30 23 14.5 17.7 0.00 0.00 0.00 60 1003.0
20260505212535 30 18 6.4 17.7 0.00 0.00 0.00 61 1003.3
20260505212032 30 17 9.7 20.9 0.00 0.00 0.00 62 1003.0
20260505211529 30 357 12.9 17.7 0.00 0.00 0.00 61 1003.1
20260505211025 30 6 16.1 20.9 0.00 0.00 0.00 62 1003.0
20260505210522 30 26 16.1 20.9 0.00 0.00 0.00 61 1003.0
20260505210019 30 29 14.5 20.9 0.00 0.00 0.00 62 1003.2
20260505205517 29 29 9.7 20.9 0.00 0.00 0.00 63 1003.2
20260505205014 29 13 19.3 25.7 0.00 0.00 0.00 62 1003.6
20260505204512 29 357 11.3 25.7 0.00 0.00 0.00 63 1003.5
20260505204009 29 29 9.7 22.5 0.00 0.00 0.00 63 1003.4
20260505203505 29 1 12.9 25.7 0.00 0.00 0.00 64 1003.6
20260505203002 29 22 16.1 17.7 0.00 0.00 0.00 64 1003.7
20260505202458 29 4 12.9 20.9 0.00 0.00 0.00 64 1003.8
20260505201954 29 13 14.5 20.9 0.00 0.00 0.00 64 1003.8
20260505201451 29 30 6.4 19.3 0.00 0.00 0.00 64 1003.7
20260505200949 28 18 14.5 19.3 0.00 0.00 0.00 64 1003.8
20260505200447 28 9 12.9 24.1 0.00 0.00 0.00 65 1003.9
20260505195942 28 11 14.5 19.3 0.00 0.00 0.00 65 1004.0
20260505195440 28 354 9.7 19.3 0.00 0.00 0.00 65 1003.8
20260505194937 28 19 12.9 25.7 0.00 0.00 0.00 66 1003.8
20260505194434 28 16 20.9 20.9 0.00 0.00 0.00 66 1004.2
20260505193934 28 5 19.3 27.4 0.00 0.00 0.00 66 1003.7
20260505193432 28 37 9.7 20.9 0.00 0.00 0.00 67 1003.8
20260505192930 28 3 19.3 32.2 0.00 0.00 0.00 67 1004.1
20260505192428 27 6 14.5 22.5 0.00 0.00 0.00 67 1003.7
20260505191925 27 4 17.7 30.6 0.00 0.00 0.00 67 1003.9
20260505191424 27 21 22.5 27.4 0.00 0.00 0.00 67 1003.8
20260505190920 27 23 16.1 29.0 0.00 0.00 0.00 68 1004.0
20260505190415 27 31 17.7 27.4 0.00 0.00 0.00 69 1004.0
20260505185911 27 8 19.3 20.9 0.00 0.00 0.00 69 1004.2
20260505185408 27 6 17.7 27.4 0.00 0.00 0.00 68 1004.4
20260505184904 27 17 16.1 22.5 0.00 0.00 0.00 69 1004.1
20260505184401 27 25 9.7 25.7 0.00 0.00 0.00 69 1004.5
20260505183858 27 30 14.5 25.7 0.00 0.00 0.00 69 1004.3
20260505183355 27 13 16.1 24.1 0.00 0.00 0.00 70 1004.4
20260505182852 27 17 14.5 25.7 0.00 0.00 0.00 68 1004.2
20260505182348 27 43 12.9 24.1 0.00 0.00 0.00 68 1004.3
20260505181845 26 24 19.3 25.7 0.00 0.00 0.00 70 1004.5
20260505181343 26 23 20.9 27.4 0.00 0.00 0.00 70 1004.3
20260505180839 27 14 25.7 25.7 0.00 0.00 0.00 69 1004.3
20260505180335 27 9 17.7 24.1 0.00 0.00 0.00 68 1004.3
20260505175832 27 14 17.7 22.5 0.00 0.00 0.00 69 1004.3
20260505175329 27 6 19.3 27.4 0.00 0.00 0.00 69 1004.6
20260505174825 26 22 14.5 29.0 0.00 0.00 0.00 70 1004.6
20260505174323 26 3 14.5 25.7 0.00 0.00 0.00 70 1004.6
20260505173818 26 6 17.7 27.4 0.00 0.00 0.00 70 1004.5
20260505173316 26 0 19.3 25.7 0.00 0.00 0.00 70 1004.5
20260505172813 26 28 14.5 25.7 0.00 0.00 0.00 70 1004.4
20260505172310 26 21 22.5 30.6 0.00 0.00 0.00 72 1004.4
20260505171804 25 13 14.5 24.1 0.00 0.00 0.00 73 1004.4
20260505171301 26 31 9.7 30.6 0.00 0.00 0.00 72 1004.8
20260505170758 26 353 17.7 29.0 0.00 0.00 0.00 72 1004.5
20260505170255 25 11 24.1 27.4 0.00 0.00 0.00 73 1004.9
20260505165755 25 16 16.1 27.4 0.00 0.00 0.00 73 1004.6
20260505165252 25 6 29.0 35.4 0.00 0.00 0.00 72 1004.6
20260505164748 25 17 27.4 29.0 0.00 0.00 0.00 73 1004.6
20260505164245 25 22 17.7 30.6 0.00 0.00 0.00 72 1004.6
20260505163743 25 0 25.7 37.0 0.00 0.00 0.00 72 1004.7
20260505163242 25 30 16.1 35.4 0.00 0.00 0.00 72 1004.5
20260505162739 25 12 19.3 27.4 0.00 0.00 0.00 73 1004.5
20260505162235 25 39 12.9 30.6 0.00 0.00 0.00 74 1004.5
20260505161732 25 30 12.9 27.4 0.00 0.00 0.00 73 1004.3
20260505161230 25 7 16.1 35.4 0.00 0.00 0.00 73 1004.2
20260505160727 25 36 17.7 35.4 0.00 0.00 0.00 74 1004.1
20260505160225 24 20 17.7 32.2 0.00 0.00 0.00 75 1004.2
20260505153204 24 32 14.5 30.6 0.00 0.00 0.00 76 1004.6
20260505152700 23 7 9.7 29.0 0.00 0.00 0.00 77 1004.5
20260505152156 23 28 33.8 37.0 0.00 0.00 0.00 77 1004.2
20260505151652 23 35 25.7 32.2 0.00 0.00 0.00 78 1004.4
20260505151149 23 9 25.7 30.6 0.00 0.00 0.00 78 1004.4
20260505150645 23 13 14.5 37.0 0.00 0.00 0.00 77 1004.6
20260505150143 23 20 12.9 27.4 0.00 0.00 0.00 78 1004.3
20260505140616 23 39 16.1 37.0 0.00 0.00 0.00 79 1004.1
20260505140113 22 9 14.5 27.4 0.00 0.00 0.00 80 1004.2
20260505125030 22 8 20.9 32.2 0.00 0.00 0.00 81 1004.2